This demonstration page uses our WeatherBlox Daily Observations layout. Learn more.

Left ArrowRight Arrow

30.21309, -93.2044

Hourly Observations for October 30, 2015

Temp ( °F °C ) Dew Point ( °F °C ) Humidity (%) Winds ( mph kmh ) Pressure ( in mb ) Visibility ( mi km ) Precip ( " mm )
12:15 am 00:15 Clear 60 15.7 60 15.5 99 99 Calm 29.97 1015 7 11 0.00 0.00
12:35 am 00:35 Clear 61 16.3 60 15.5 95 95 E 5 7 29.94 1014 10 16 0.00 0.00
12:55 am 00:55 Clear 62 16.7 60 15.8 94 94 E 5 7 29.94 1014 10 16 0.00 0.00
1:15 am 01:15 Clear 62 16.4 60 15.6 95 95 E 5 7 29.94 1014 10 16 0.00 0.00
1:35 am 01:35 Clear 62 16.5 60 15.7 95 95 Calm 29.94 1014 10 16 0.00 0.00
1:55 am 01:55 Clear 62 16.6 60 15.7 94 94 E 3 6 29.94 1014 10 16 0.00 0.00
2:15 am 02:15 Clear 61 16.2 59 15.2 94 94 E 3 6 29.94 1014 10 16 0.00 0.00
2:35 am 02:35 Partly Cloudy 62 16.8 60 15.5 92 92 E 3 6 29.94 1014 10 16 0.00 0.00
2:55 am 02:55 Partly Cloudy 63 17 59 15.1 89 89 E 3 6 29.94 1014 10 16 0.00 0.00
3:15 am 03:15 Clear 61 16.2 58 14.7 91 91 Calm 29.94 1014 10 16 0.00 0.00
3:35 am 03:35 Partly Cloudy 62 16.7 58 14.7 88 88 E 3 6 29.94 1014 10 16 0.00 0.00
3:55 am 03:55 Mostly Cloudy 62 16.8 59 14.9 89 89 E 5 7 29.94 1014 10 16 0.00 0.00
4:15 am 04:15 Cloudy 63 17.2 59 15.1 88 88 E 7 11 29.94 1014 10 16 0.00 0.00
4:35 am 04:35 Cloudy 63 17.2 59 15.2 88 88 E 7 11 29.91 1013 10 16 0.00 0.00
4:55 am 04:55 Cloudy 63 17.3 60 15.3 88 88 E 7 11 29.91 1013 10 16 0.00 0.00
5:15 am 05:15 Cloudy 63 17.2 60 15.3 89 89 E 8 13 29.91 1013 10 16 0.00 0.00
6:00 am 06:00 Mostly Cloudy 63 17 61 16 94 94 E 12 19 29.91 1013 10 16 0.00 0.00
6:55 am 06:55 Mostly Cloudy 63 17 61 16 94 94 E 12 19 29.91 1013 10 16 0.00 0.00
7:45 am 07:45 Mostly Cloudy 63 17 61 16 94 94 E 12 19 29.94 1014 10 16 0.00 0.00
8:50 am 08:50 Partly Cloudy 66 19 59 15 78 78 E 12 19 29.94 1014 10 16 0.00 0.00
9:45 am 09:45 Partly Cloudy 70 21 61 16 73 73 E 9 15 29.97 1015 10 16 0.00 0.00
10:50 am 10:50 Mostly Cloudy 72 22 61 16 69 69 E 9 15 29.97 1015 10 16 0.00 0.00
11:55 am 11:55 Mostly Cloudy 73 23 63 17 69 69 ESE 10 17 29.94 1014 10 16 0.00 0.00
12:45 pm 12:45 Mostly Cloudy 109 43 64 18 23 23 ESE 10 17 29.94 1014 10 16 0.00 0.00
1:50 pm 13:50 Partly Cloudy 77 25 66 19 69 69 ESE 10 17 29.91 1013 10 16 0.00 0.00
2:50 pm 14:50 Mostly Cloudy 75 24 68 20 78 78 SE 14 22 29.88 1012 10 16 0.00 0.00
3:50 pm 15:50 Mostly Cloudy with Light Rain 73 23 70 21 89 89 undefined N/A 29.88 1012 10 16 0.00 0.00
4:50 pm 16:50 Cloudy with Light Rain 73 23 70 21 89 89 SE 13 20 29.88 1012 10 16 0.00 0.00
5:50 pm 17:50 Cloudy 73 23 66 19 78 78 SE 15 24 29.85 1011 10 16 0.00 0.00
6:50 pm 18:50 Cloudy with Light Rain 72 22 66 19 83 83 ESE 13 20 29.83 1010 10 16 0.00 0.00
7:50 pm 19:50 Mostly Cloudy 72 22 66 19 83 83 SE 13 20 29.85 1011 10 16 0.00 0.00
8:55 pm 20:55 Mostly Cloudy 72 22 68 20 88 88 SE 17 28 29.83 1010 10 16 0.00 0.00
9:50 pm 21:50 Mostly Cloudy 72 22 68 20 88 88 ESE 14 22 29.83 1010 10 16 0.00 0.00
10:15 pm 22:15 Clear 72 22 68 20 88 88 SE 16 26 29.80 1009 10 16 0.00 0.00
10:35 pm 22:35 Clear 72 22 68 20 88 88 ESE 16 26 29.80 1009 10 16 0.00 0.00
10:55 pm 22:55 Clear 72 22 68 20 88 88 ESE 15 24 29.80 1009 10 16 0.00 0.00
11:15 pm 23:15 Mostly Cloudy 72 22 68 20 88 88 ESE 15 24 29.80 1009 10 16 0.00 0.00
11:35 pm 23:35 Cloudy 72 22.3 68 20.2 88 88 ESE 12 19 29.80 1009 10 16 0.00 0.00
11:55 pm 23:55 Cloudy 73 22.5 69 20.5 89 89 ESE 10 17 29.80 1009 10 16 0.00 0.00

Powered by AerisWeather